Wind_Speed
13 12 12 12 13 14 15 16 17 18 18 19 19 19 19 18 18 18 18 18 18 18 18 18 18 18 17 17 17 17 17 17 17 17 17 17 18 18 18 18 18 18 18
12 12 11 11 12 12 13 14 15 16 16 18 19 19 20 20 20 20 20 20 20 20 20 20 20 19 19 19 19 19 19 19 19 19 19 19 19 19 20 20 20 20 20
11 10 9 9 9 9 10 10 11 12 13 14 15 17 18 19 19 19 20 20 20 20 20 21 21 21 21 21 21 20 20 20 20 20 20 20 20 20 21 21 21 21 21
8 7 6 6 6 6 7 7 8 9 10 11 12 13 15 16 17 18 19 19 20 20 21 21 21 21 21 21 21 21 21 20 20 20 20 20 21 21 21 21 21 22 22
6 5 5 5 5 6 6 7 8 8 8 9 10 11 12 14 15 17 18 19 19 20 20 20 21 21 21 21 21 21 20 19 19 19 20 21 20 20 20 20 21 21 21
5 5 4 4 5 5 6 6 6 7 8 8 9 10 11 12 13 15 16 17 18 19 19 19 20 20 20 20 20 20 19 18 17 17 19 20 20 19 19 18 19 19 19
6 5 5 5 5 5 5 6 6 7 7 8 9 9 10 11 12 13 14 15 16 17 18 18 18 18 19 19 19 20 19 18 16 16 18 19 19 18 17 17 17 18 18
7 6 6 6 5 5 6 6 6 7 7 8 9 9 10 11 12 12 13 14 15 16 17 17 17 17 18 19 19 20 19 18 16 17 18 19 19 18 18 18 18 18 19
7 7 7 6 6 6 6 6 7 7 7 8 9 10 10 11 12 12 13 14 15 16 17 17 17 18 18 19 20 21 20 19 18 18 19 20 20 20 20 19 19 19 20
8 7 7 6 6 6 6 7 7 8 8 8 9 10 11 11 12 13 14 15 16 16 16 17 18 18 19 20 21 22 21 20 20 20 20 21 21 21 21 21 21 21 21
9 8 7 7 7 7 7 7 7 8 8 9 9 10 10 11 12 13 14 14 15 16 16 17 18 19 20 21 22 22 22 22 21 21 21 22 22 23 23 23 23 24 24
10 9 8 8 8 7 7 8 8 8 9 9 9 10 11 11 12 12 13 14 14 15 16 17 18 18 19 20 21 22 22 22 22 22 22 23 24 24 25 25 26 26 27
10 10 10 10 9 8 8 9 9 9 9 10 10 10 11 12 12 13 13 14 15 15 15 16 17 18 19 20 21 22 23 23 23 23 24 24 25 26 27 28 29 29 30
9 10 10 10 11 11 10 10 10 10 11 11 11 12 12 13 14 15 15 16 16 16 16 16 17 18 20 21 22 23 24 25 26 26 27 28 29 30 30 31 32 32 33
12 11 10 11 12 12 12 13 12 12 12 12 13 13 14 15 16 17 17 17 18 19 19 19 20 20 21 22 24 26 27 29 29 30 31 32 33 34 35 36 37 37 38
15 12 12 12 13 13 14 14 14 14 14 14 15 15 16 17 18 19 20 21 21 21 22 23 24 25 25 26 27 29 31 32 33 35 36 37 38 39 40 41 42 43 44
20 17 13 15 16 17 17 16 17 16 16 17 17 18 19 19 20 22 23 24 25 26 26 27 28 29 30 30 31 32 33 35 37 39 40 41 43 43 44 46 47 48 49
23 21 20 20 21 22 22 21 20 20 19 20 20 21 22 23 24 25 26 27 29 29 30 31 32 33 34 35 35 36 37 38 40 42 43 45 46 48 49 50 52 53 54
26 25 24 25 26 27 27 26 26 25 24 24 24 25 26 27 29 29 29 30 32 33 34 34 35 36 37 38 39 40 41 42 44 46 47 49 50 51 52 54 56 57 59
30 30 29 28 30 32 33 32 31 31 30 29 29 30 31 31 32 33 34 35 36 36 37 37 37 38 38 39 41 42 44 46 47 49 50 51 53 54 56 58 59 60 61
34 33 32 32 34 36 36 35 35 35 34 34 33 34 35 35 36 37 38 38 38 38 38 39 39 40 40 41 42 44 46 48 49 50 51 53 54 56 58 60 61 62 63
35 35 35 36 38 39 38 36 37 38 37 36 36 36 38 39 40 39 40 40 40 40 40 40 41 42 43 43 44 45 47 48 50 52 53 55 57 59 60 61 62 63 64
36 36 37 39 41 42 41 39 38 38 38 38 38 38 40 40 41 41 41 40 41 41 41 42 42 43 45 46 47 48 49 50 52 54 57 59 60 60 61 62 63 64 65
36 37 38 41 42 41 40 40 41 39 39 39 39 40 41 41 41 42 41 42 43 43 44 44 45 45 46 49 50 51 53 54 55 56 58 60 61 62 62 63 64 66 66
36 38 40 43 42 40 41 41 39 39 39 40 40 41 42 42 42 43 43 45 45 46 46 47 47 48 49 50 52 54 56 57 59 60 60 60 61 62 63 64 66 68 69
38 40 42 44 43 42 42 40 39 39 39 41 41 42 43 43 44 44 45 46 46 47 48 49 50 50 52 54 56 57 59 61 63 63 62 61 61 63 65 66 68 70 71
Wind_Direction
303 299 294 287 281 277 275 274 274 273 271 269 267 264 262 260 260 262 263 265 265 264 264 264 263 261 260 260 261 261 261 262 263 264 264 265 265 265 266 268 269 271 272
301 298 294 290 285 280 277 275 274 272 270 268 266 263 262 260 260 261 262 263 264 265 265 264 263 262 262 262 262 263 264 265 266 266 267 267 267 268 270 272 273 275 275
300 298 294 292 290 285 280 277 274 271 268 266 264 262 261 260 260 260 261 262 263 264 264 263 263 262 263 263 264 264 266 267 269 270 271 271 271 272 274 274 275 275 276
308 302 302 302 300 293 287 283 279 275 272 269 266 262 261 260 260 260 260 262 263 264 264 264 264 265 265 266 266 267 267 269 271 272 273 273 274 275 275 274 274 274 274
321 316 315 314 312 305 298 294 290 285 279 275 272 269 265 263 261 260 260 261 262 263 264 265 266 267 267 268 268 268 269 269 270 272 273 274 274 275 275 273 272 273 273
336 329 328 324 321 317 312 308 306 300 292 287 281 276 272 269 265 263 263 263 264 265 266 266 267 267 267 268 269 269 269 269 269 270 271 272 273 273 271 272 272 273 272
349 339 330 325 322 323 322 322 319 315 310 303 295 286 280 277 273 270 268 268 268 268 268 269 269 268 268 268 269 270 270 270 268 267 267 269 270 271 271 271 271 270 270
347 339 331 323 318 323 327 329 328 323 318 313 306 298 291 286 282 278 274 272 271 270 271 271 271 271 271 271 271 272 272 271 269 267 267 268 268 270 270 270 268 268 268
342 333 326 321 321 326 329 329 328 325 321 316 308 301 296 290 286 283 279 277 275 274 274 275 274 273 273 273 274 274 274 274 273 269 268 269 269 269 269 269 268 267 267
341 333 327 327 326 329 330 331 328 324 320 316 310 305 300 295 292 288 284 281 280 279 278 278 278 276 276 275 275 276 277 277 275 272 271 270 269 269 269 268 268 268 268
345 338 335 333 334 332 329 331 331 330 327 321 317 312 306 301 297 294 290 287 285 284 282 281 280 279 278 277 276 277 278 278 276 274 272 271 270 270 270 270 270 270 271
347 344 344 339 340 339 334 333 331 330 329 327 323 319 314 309 305 300 295 292 288 285 283 281 281 281 279 278 277 278 278 277 275 273 272 272 272 272 272 272 272 273 273
344 345 349 343 340 342 340 336 330 326 326 327 326 323 321 317 313 309 304 299 292 287 286 286 285 282 281 280 280 278 278 277 276 274 272 271 271 272 273 274 275 275 276
334 336 343 341 336 338 340 337 333 328 325 323 323 323 321 320 317 315 312 307 298 295 292 290 287 286 284 282 281 281 280 280 279 277 275 273 273 273 274 275 276 277 277
312 318 326 332 331 330 330 330 331 331 328 325 323 321 319 319 317 314 312 308 305 301 298 294 291 289 286 284 283 283 283 282 281 279 278 278 277 276 276 276 277 278 278
307 310 315 319 324 323 323 323 323 324 321 320 318 316 314 314 314 311 307 307 305 302 299 295 291 289 286 284 283 283 283 283 282 281 280 280 280 279 278 278 278 278 278
308 305 313 318 317 316 316 315 314 313 311 309 309 309 309 309 308 306 304 303 303 299 296 294 292 288 286 285 284 283 284 284 284 284 284 283 282 281 281 280 280 280 280
305 308 311 313 310 310 311 310 308 305 303 301 301 302 303 304 303 303 303 302 302 300 296 294 292 290 288 286 285 284 285 285 284 284 285 284 284 283 283 282 282 281 281
306 308 308 309 308 306 306 305 307 303 299 298 297 297 297 297 297 299 299 301 300 299 296 293 291 290 288 286 285 285 285 285 285 285 286 285 285 284 283 283 283 282 282
304 308 307 306 307 305 301 302 305 302 298 296 295 295 294 293 293 293 295 296 297 297 295 291 289 289 287 286 285 285 285 286 287 287 288 287 286 286 285 285 284 284 283
303 305 305 303 303 300 297 298 300 298 296 294 292 291 292 291 290 290 292 293 294 294 294 292 288 287 286 285 285 285 286 287 288 289 289 289 288 288 287 286 285 284 284
299 301 303 302 299 296 293 292 293 292 292 291 290 290 290 290 290 290 292 292 292 292 292 291 288 287 287 286 286 286 287 288 289 289 290 290 289 289 288 287 285 284 283
294 297 299 298 295 291 288 289 288 286 286 288 288 288 289 291 293 294 294 294 294 292 292 292 289 287 288 287 287 288 288 288 288 288 289 289 289 288 287 286 285 285 284
291 293 294 293 291 288 288 289 288 286 285 286 286 288 289 291 293 295 295 295 294 292 292 292 291 289 288 288 289 289 289 290 289 288 289 290 289 289 288 287 286 285 285
286 288 289 289 288 289 290 290 289 288 287 286 286 287 290 291 293 294 295 295 294 294 293 293 292 290 290 290 290 290 290 291 291 290 290 290 289 289 289 288 287 286 285
282 284 285 287 288 291 292 292 290 290 288 288 288 289 290 291 292 293 294 294 294 294 293 293 292 291 291 291 291 291 290 291 292 291 291 290 289 290 290 289 288 286 285
Height
5905 5904 5904 5904 5904 5904 5904 5903 5903 5903 5903 5903 5903 5903 5904 5904 5904 5904 5905 5905 5904 5904 5904 5904 5903 5903 5903 5902 5902 5902 5902 5902 5902 5902 5902 5902 5902 5901 5901 5901 5901 5901 5901
5903 5902 5902 5902 5902 5902 5902 5901 5901 5901 5901 5901 5900 5900 5901 5901 5901 5902 5902 5902 5902 5901 5901 5901 5901 5901 5900 5900 5900 5900 5900 5900 5900 5899 5899 5899 5899 5899 5899 5899 5898 5898 5898
5902 5901 5900 5900 5900 5900 5900 5900 5900 5899 5899 5899 5898 5898 5898 5898 5898 5899 5899 5899 5899 5898 5898 5898 5898 5898 5897 5897 5897 5897 5897 5897 5897 5897 5896 5896 5896 5896 5895 5895 5895 5895 5895
5900 5899 5899 5899 5899 5899 5899 5898 5898 5898 5897 5897 5897 5896 5896 5896 5896 5896 5896 5896 5896 5896 5895 5895 5895 5895 5895 5894 5894 5894 5894 5894 5894 5894 5893 5893 5893 5892 5892 5892 5891 5891 5891
5899 5899 5898 5898 5898 5898 5897 5897 5897 5896 5896 5896 5895 5895 5895 5894 5894 5894 5894 5893 5893 5893 5893 5892 5892 5892 5891 5891 5891 5891 5891 5891 5891 5891 5890 5889 5889 5889 5888 5888 5888 5888 5887
5899 5898 5898 5897 5897 5896 5896 5896 5895 5895 5895 5894 5894 5893 5893 5893 5892 5892 5891 5891 5891 5891 5890 5890 5889 5889 5888 5888 5887 5887 5887 5888 5888 5888 5887 5886 5885 5885 5885 5884 5884 5884 5884
5898 5898 5897 5896 5896 5895 5895 5894 5894 5893 5893 5893 5892 5892 5892 5891 5891 5890 5890 5889 5889 5888 5888 5887 5887 5886 5885 5885 5884 5883 5884 5885 5885 5885 5884 5883 5882 5882 5882 5881 5881 5881 5880
5898 5897 5896 5896 5895 5894 5894 5893 5892 5892 5892 5891 5891 5891 5890 5890 5889 5889 5888 5888 5887 5886 5886 5885 5884 5883 5883 5882 5881 5880 5880 5881 5882 5881 5880 5880 5879 5879 5878 5878 5878 5877 5876
5897 5896 5896 5895 5894 5893 5893 5892 5891 5891 5890 5890 5890 5889 5889 5888 5888 5887 5887 5886 5885 5884 5884 5883 5882 5881 5880 5879 5878 5877 5877 5878 5878 5878 5877 5876 5875 5875 5874 5874 5873 5873 5872
5897 5896 5895 5894 5893 5892 5892 5891 5890 5890 5889 5888 5888 5887 5887 5886 5886 5885 5885 5884 5883 5882 5881 5880 5879 5878 5877 5876 5875 5874 5874 5874 5875 5874 5873 5872 5871 5870 5870 5869 5869 5868 5868
5897 5895 5894 5893 5892 5891 5890 5890 5889 5888 5888 5887 5886 5886 5885 5884 5884 5883 5882 5881 5881 5880 5879 5878 5877 5875 5874 5873 5872 5871 5870 5871 5871 5870 5869 5868 5867 5866 5865 5864 5864 5863 5862
5896 5895 5893 5892 5891 5890 5889 5888 5888 5887 5886 5886 5885 5884 5883 5882 5881 5880 5880 5879 5878 5877 5876 5874 5873 5872 5871 5869 5868 5867 5866 5866 5866 5865 5864 5863 5862 5861 5860 5859 5859 5858 5857
5894 5893 5892 5891 5890 5889 5888 5887 5886 5885 5884 5884 5883 5882 5881 5880 5879 5878 5877 5876 5875 5874 5873 5871 5870 5869 5867 5866 5864 5863 5862 5861 5861 5860 5859 5858 5857 5856 5855 5854 5853 5852 5851
5894 5893 5891 5889 5888 5887 5886 5885 5884 5883 5882 5881 5881 5880 5878 5877 5876 5875 5875 5873 5872 5871 5870 5868 5867 5865 5864 5862 5860 5859 5857 5856 5855 5854 5853 5852 5851 5850 5848 5847 5846 5845 5844
5894 5892 5890 5888 5886 5885 5884 5883 5882 5880 5879 5878 5878 5877 5876 5875 5873 5872 5871 5870 5869 5867 5866 5864 5863 5861 5860 5858 5856 5854 5852 5850 5849 5848 5847 5845 5844 5843 5841 5840 5838 5837 5835
5891 5889 5887 5885 5884 5883 5882 5881 5879 5878 5876 5875 5874 5874 5873 5872 5870 5869 5867 5866 5865 5863 5861 5860 5858 5857 5855 5853 5851 5849 5846 5844 5842 5840 5839 5837 5836 5834 5833 5831 5829 5827 5826
5886 5885 5883 5881 5880 5879 5879 5877 5876 5875 5873 5872 5870 5869 5868 5867 5865 5864 5862 5860 5859 5858 5856 5854 5852 5850 5849 5847 5845 5843 5840 5837 5835 5832 5830 5828 5826 5825 5823 5821 5819 5817 5815
5881 5879 5877 5876 5875 5874 5873 5872 5871 5870 5869 5867 5865 5864 5862 5860 5859 5857 5855 5853 5851 5850 5848 5846 5844 5842 5840 5839 5837 5835 5833 5830 5827 5825 5822 5819 5817 5815 5812 5810 5807 5805 5802
5876 5874 5872 5870 5869 5868 5866 5865 5865 5864 5862 5861 5859 5857 5855 5853 5851 5849 5848 5846 5844 5842 5840 5838 5836 5834 5831 5830 5828 5826 5823 5821 5818 5815 5813 5809 5806 5804 5801 5798 5795 5792 5789
5869 5868 5867 5865 5863 5862 5860 5858 5857 5856 5855 5854 5852 5850 5848 5845 5843 5842 5840 5838 5836 5834 5832 5830 5827 5825 5822 5820 5818 5816 5814 5811 5808 5805 5801 5798 5794 5791 5787 5784 5781 5777 5774
5863 5862 5861 5860 5858 5855 5852 5850 5850 5848 5848 5847 5845 5842 5840 5838 5835 5833 5831 5830 5828 5825 5823 5820 5818 5815 5813 5811 5809 5807 5804 5800 5797 5793 5789 5785 5781 5777 5773 5769 5765 5762 5758
5856 5855 5855 5853 5851 5849 5845 5843 5842 5841 5840 5839 5837 5835 5832 5830 5827 5825 5823 5821 5819 5816 5814 5811 5808 5805 5802 5800 5798 5795 5793 5790 5785 5781 5777 5772 5768 5763 5759 5754 5750 5746 5742
5850 5849 5848 5846 5845 5842 5839 5836 5835 5833 5833 5831 5830 5827 5824 5821 5819 5817 5814 5812 5809 5807 5804 5801 5798 5795 5792 5789 5786 5784 5781 5778 5774 5770 5764 5759 5754 5749 5744 5739 5734 5729 5725
5844 5843 5841 5840 5837 5834 5831 5829 5828 5826 5825 5824 5822 5819 5816 5813 5811 5808 5805 5803 5800 5797 5794 5791 5788 5785 5781 5778 5774 5771 5768 5764 5761 5757 5752 5745 5738 5733 5728 5723 5717 5712 5707
5838 5836 5835 5833 5829 5827 5825 5822 5820 5819 5818 5816 5814 5811 5809 5806 5803 5800 5796 5793 5790 5787 5783 5780 5777 5774 5770 5766 5762 5757 5753 5749 5745 5742 5738 5732 5724 5717 5711 5705 5699 5694 5688
5831 5830 5828 5825 5822 5820 5818 5815 5813 5812 5811 5808 5805 5804 5801 5798 5795 5791 5787 5783 5780 5776 5773 5769 5765 5762 5758 5753 5749 5744 5739 5734 5729 5724 5720 5715 5710 5703 5694 5687 5680 5674 5669